Volver al catálogo

STARLINK-11369

ActivoComunicacionesVLEO
NORAD 62095·PAYLOAD·🇺🇸 United States

Lanzado Nov 25, 2024 desde Cape Canaveral Space Force Station

Loading…

Próximos Pases (próximas 24 horas)

TLE

ActualizadoSource: CelesTrak SupGP

Época: Sep 14, 2026, 20:48 UTC

1 62095C 24220H   26257.86715278 -.00008757  00000+0 -67981-4 0  2578
2 62095  43.0006 342.6255 0001606 275.0609 225.7038 15.70854842    18

Sigue STARLINK-11369 en tiempo real con AllMySat

Download on the App Store